SM6PGP-2 Weather Reports


time (UTC)temp
C
wind
direction
speed
KPH
gust
KPH
rain 1hr
cm
rain 24hr
cm
rain mn
cm
humidity
%
barometer
mb
20260505171941 10 225 3.2 8.0 0.00 0.00 0.00 20 1009.3
20260505171436 10 315 3.2 6.4 0.00 0.00 0.00 21 1009.2
20260505170931 10 310 11.3 16.1 0.00 0.00 0.00 22 1009.2
20260505170426 9 337 3.2 6.4 0.00 0.00 0.00 22 1009.2
20260505165920 8 306 8.0 8.0 0.00 0.00 0.00 23 1009.3
20260505165415 8 301 6.4 17.7 0.00 0.00 0.00 20 1009.3
20260505164910 9 315 14.5 20.9 0.00 0.00 0.00 19 1009.4
20260505164405 9 315 3.2 6.4 0.00 0.00 0.00 18 1009.5
20260505163900 10 261 8.0 8.0 0.00 0.00 0.00 16 1009.5
20260505163354 10 324 11.3 17.7 0.00 0.00 0.00 17 1009.5
20260505162849 10 315 8.0 19.3 0.00 0.00 0.00 18 1009.4
20260505162344 10 310 4.8 27.4 0.00 0.00 0.00 17 1009.4
20260505161839 10 306 9.7 19.3 0.00 0.00 0.00 20 1009.4
20260505161334 10 297 4.8 20.9 0.00 0.00 0.00 17 1009.5
20260505160828 10 337 4.8 12.9 0.00 0.00 0.00 14 1009.4
20260505160323 11 297 8.0 12.9 0.00 0.00 0.00 15 1009.5
20260505153252 11 306 11.3 37.0 0.00 0.00 0.00 15 1009.4
20260505152747 11 279 8.0 24.1 0.00 0.00 0.00 19 1009.5
20260505152242 11 288 4.8 14.5 0.00 0.00 0.00 17 1009.6
20260505151736 11 270 19.3 19.3 0.00 0.00 0.00 19 1009.5
20260505151231 11 258 1.6 14.5 0.00 0.00 0.00 18 1009.6
20260505150726 11 301 12.9 16.1 0.00 0.00 0.00 16 1009.6
20260505140619 11 270 8.0 25.7 0.00 0.00 0.00 24 1009.7
20260505140114 11 265 3.2 16.1 0.00 0.00 0.00 25 1009.8
20260505125001 11 297 9.7 20.9 0.00 0.00 0.00 26 1009.6
20260505124456 11 252 12.9 24.1 0.00 0.00 0.00 25 1009.5
20260505123950 11 270 8.0 29.0 0.00 0.00 0.00 27 1009.6
20260505123445 11 238 17.7 20.9 0.00 0.00 0.00 25 1009.5
20260505122940 11 270 16.1 30.6 0.00 0.00 0.00 25 1009.5
20260505122435 11 261 8.0 25.7 0.00 0.00 0.00 25 1009.6
20260505121930 11 247 8.0 16.1 0.00 0.00 0.00 24 1009.6
20260505121424 11 292 9.7 11.3 0.00 0.00 0.00 29 1009.6
20260505120919 11 301 8.0 19.3 0.00 0.00 0.00 27 1009.6
20260505120414 11 274 6.4 20.9 0.00 0.00 0.00 28 1009.7
20260505115909 11 328 12.9 25.7 0.00 0.00 0.00 29 1009.5
20260505115404 11 261 8.0 32.2 0.00 0.00 0.00 27 1009.5
20260505114858 11 279 8.0 17.7 0.00 0.00 0.00 27 1009.4
20260505114354 11 283 4.8 22.5 0.00 0.00 0.00 26 1009.4
20260505113848 11 261 12.9 20.9 0.00 0.00 0.00 26 1009.4
20260505113343 11 247 11.3 11.3 0.00 0.00 0.00 24 1009.3
20260505112838 11 270 9.7 29.0 0.00 0.00 0.00 24 1009.3
20260505112332 12 243 4.8 20.9 0.00 0.00 0.00 21 1009.3
20260505111827 12 333 4.8 11.3 0.00 0.00 0.00 20 1009.3
20260505111322 12 288 12.9 14.5 0.00 0.00 0.00 22 1009.3
20260505110817 12 288 8.0 9.7 0.00 0.00 0.00 19 1009.3
20260505110312 12 301 8.0 16.1 0.00 0.00 0.00 26 1009.3
20260505101725 12 324 9.7 17.7 0.00 0.00 0.00 26 1009.3
20260505101220 12 270 9.7 19.3 0.00 0.00 0.00 25 1009.4
20260505100714 12 45 14.5 16.1 0.00 0.00 0.00 25 1009.3
20260505100209 12 310 14.5 20.9 0.00 0.00 0.00 23 1009.4
20260505095705 12 274 8.0 16.1 0.00 0.00 0.00 24 1009.3
20260505095159 12 261 19.3 19.3 0.00 0.00 0.00 24 1009.2
20260505094654 12 180 6.4 17.7 0.00 0.00 0.00 25 1009.2
20260505094148 12 324 4.8 16.1 0.00 0.00 0.00 24 1009.2
20260505093643 12 270 14.5 19.3 0.00 0.00 0.00 25 1009.1
20260505093139 12 279 8.0 24.1 0.00 0.00 0.00 21 1009.0
20260505092633 12 270 17.7 20.9 0.00 0.00 0.00 25 1008.9
20260505092128 12 351 6.4 22.5 0.00 0.00 0.00 24 1008.9
20260505091622 12 333 4.8 11.3 0.00 0.00 0.00 22 1008.9
20260505091117 12 324 4.8 12.9 0.00 0.00 0.00 19 1008.9
20260505090613 11 345 12.9 20.9 0.00 0.00 0.00 21 1009.0
20260505090107 12 279 12.9 19.3 0.00 0.00 0.00 24 1009.0
20260505085602 12 283 11.3 20.9 0.00 0.00 0.00 25 1009.0
20260505085057 12 261 8.0 11.3 0.00 0.00 0.00 30 1009.0
20260505084551 12 306 6.4 17.7 0.00 0.00 0.00 27 1009.0
20260505084047 12 320 8.0 16.1 0.00 0.00 0.00 30 1009.0
20260505083541 12 4 6.4 12.9 0.00 0.00 0.00 27 1008.9
20260505083036 12 288 8.0 17.7 0.00 0.00 0.00 27 1008.8
20260505082530 12 270 16.1 17.7 0.00 0.00 0.00 27 1008.7
20260505082025 12 310 11.3 22.5 0.00 0.00 0.00 26 1008.8
20260505081521 12 292 11.3 16.1 0.00 0.00 0.00 27 1008.8
20260505081015 12 351 12.9 16.1 0.00 0.00 0.00 28 1008.7
20260505080510 11 310 14.5 14.5 0.00 0.00 0.00 31 1008.6
20260505080005 11 306 6.4 20.9 0.00 0.00 0.00 29 1008.6
20260505075459 12 328 14.5 16.1 0.00 0.00 0.00 28 1008.6
20260505074955 11 22 6.4 16.1 0.00 0.00 0.00 27 1008.5
20260505074449 12 288 11.3 16.1 0.00 0.00 0.00 29 1008.4
20260505073944 12 279 14.5 14.5 0.00 0.00 0.00 32 1008.4
20260505073439 12 292 9.7 19.3 0.00 0.00 0.00 27 1008.4
20260505072933 12 279 4.8 19.3 0.00 0.00 0.00 30 1008.4
20260505072429 11 0 6.4 6.4 0.00 0.00 0.00 35 1008.3
20260505071923 11 261 8.0 12.9 0.00 0.00 0.00 32 1008.3
20260505071418 11 0 3.2 14.5 0.00 0.00 0.00 34 1008.4
20260505070913 12 270 12.9 17.7 0.00 0.00 0.00 35 1008.3
20260505070407 12 283 12.9 20.9 0.00 0.00 0.00 35 1008.3
20260505065903 12 279 12.9 12.9 0.00 0.00 0.00 33 1008.2
20260505065357 12 9 0.0 8.0 0.00 0.00 0.00 36 1008.3
20260505064852 12 328 4.8 8.0 0.00 0.00 0.00 38 1008.2
20260505064347 12 0 3.2 11.3 0.00 0.00 0.00 36 1008.1
20260505063841 11 52 9.7 9.7 0.00 0.00 0.00 40 1008.1
20260505063337 11 297 3.2 8.0 0.00 0.00 0.00 39 1008.1
20260505062831 11 351 8.0 11.3 0.00 0.00 0.00 39 1008.2
20260505062326 11 303 1.6 12.9 0.00 0.00 0.00 39 1008.0
20260505061821 11 288 8.0 11.3 0.00 0.00 0.00 41 1008.0
20260505061315 11 346 4.8 9.7 0.00 0.00 0.00 41 1008.2
20260505060811 11 13 4.8 12.9 0.00 0.00 0.00 44 1008.2
20260505060305 10 342 8.0 11.3 0.00 0.00 0.00 44 1008.0
20260505055800 10 355 9.7 14.5 0.00 0.00 0.00 46 1008.1
20260505055255 10 13 6.4 11.3 0.00 0.00 0.00 45 1007.9
20260505054749 10 342 6.4 14.5 0.00 0.00 0.00 47 1008.0
20260505054245 10 331 1.6 14.5 0.00 0.00 0.00 47 1007.8
20260505053739 10 342 6.4 8.0 0.00 0.00 0.00 52 1008.0
20260505053234 10 333 4.8 17.7 0.00 0.00 0.00 51 1007.9
20260505052729 9 324 4.8 9.7 0.00 0.00 0.00 54 1007.8
20260505052224 9 351 9.7 12.9 0.00 0.00 0.00 55 1007.8
20260505051719 9 0 1.6 12.9 0.00 0.00 0.00 57 1007.8
20260505051213 8 351 3.2 14.5 0.00 0.00 0.00 56 1007.8
20260505050708 8 45 3.2 8.0 0.00 0.00 0.00 60 1007.8
20260505050203 8 315 3.2 9.7 0.00 0.00 0.00 61 1007.7
20260505041613 6 301 6.4 11.3 0.00 0.00 0.00 68 1007.4
20260505041108 6 306 1.6 14.5 0.00 0.00 0.00 70 1007.4
20260505040602 6 333 11.3 16.1 0.00 0.00 0.00 70 1007.3
20260505040058 6 0 4.8 8.0 0.00 0.00 0.00 72 1007.3
20260505035552 6 0 1.6 12.9 0.00 0.00 0.00 73 1007.3
20260505035047 6 117 4.8 14.5 0.00 0.00 0.00 73 1007.4
20260505034542 6 261 9.7 19.3 0.00 0.00 0.00 73 1007.3
20260505034036 6 342 3.2 14.5 0.00 0.00 0.00 74 1007.4
20260505033532 6 0 3.2 17.7 0.00 0.00 0.00 74 1007.4
20260505033026 6 288 4.8 9.7 0.00 0.00 0.00 74 1007.3
20260505032521 6 315 12.9 16.1 0.00 0.00 0.00 74 1007.2
20260505032016 6 310 8.0 9.7 0.00 0.00 0.00 75 1007.3
20260505031510 6 67 12.9 12.9 0.00 0.00 0.00 75 1007.2
20260505031006 6 315 4.8 6.4 0.00 0.00 0.00 75 1007.2
20260505030500 6 297 3.2 11.3 0.00 0.00 0.00 75 1007.3
20260505025955 6 256 8.0 9.7 0.00 0.00 0.00 75 1007.2
20260505025450 6 333 4.8 19.3 0.00 0.00 0.00 75 1007.4
20260505024945 6 211 11.3 12.9 0.00 0.00 0.00 75 1007.3
20260505024440 6 348 8.0 17.7 0.00 0.00 0.00 75 1007.2
20260505023934 6 306 11.3 20.9 0.00 0.00 0.00 75 1007.2
20260505023429 6 297 8.0 16.1 0.00 0.00 0.00 75 1007.2
20260505022924 6 270 14.5 16.1 0.00 0.00 0.00 75 1007.3
20260505022418 6 297 8.0 9.7 0.00 0.00 0.00 75 1007.3
20260505021914 6 274 11.3 24.1 0.00 0.00 0.00 75 1007.4
20260505021408 6 315 6.4 22.5 0.00 0.00 0.00 75 1007.4
20260505020903 6 279 8.0 12.9 0.00 0.00 0.00 74 1007.5
20260505020358 7 297 6.4 22.5 0.00 0.00 0.00 74 1007.4
20260505015852 7 288 6.4 17.7 0.00 0.00 0.00 74 1007.5
20260505015348 7 319 6.4 19.3 0.00 0.00 0.00 74 1007.3
20260505014842 7 283 11.3 25.7 0.00 0.00 0.00 75 1007.4
20260505014337 7 256 14.5 17.7 0.00 0.00 0.00 75 1007.4
20260505013832 7 337 1.6 17.7 0.00 0.00 0.00 76 1007.4
20260505013326 7 270 25.7 27.4 0.00 0.00 0.00 76 1007.4
20260505012822 7 261 4.8 12.9 0.00 0.00 0.00 76 1007.4
20260505012316 7 297 6.4 17.7 0.00 0.00 0.00 76 1007.5
20260505011811 7 270 9.7 24.1 0.00 0.00 0.00 76 1007.5
20260505011306 7 261 4.8 22.5 0.00 0.00 0.00 77 1007.6
20260505010800 7 261 12.9 14.5 0.00 0.00 0.00 77 1007.5
20260505010256 7 297 11.3 38.6 0.00 0.00 0.00 77 1007.6
20260505005750 6 288 11.3 29.0 0.00 0.00 0.00 77 1007.5
20260505005245 6 292 27.4 29.0 0.00 0.00 0.00 77 1007.4
20260505004740 6 238 11.3 17.7 0.00 0.00 0.00 77 1007.6
20260505004235 6 283 14.5 33.8 0.00 0.00 0.00 77 1007.5
20260505003730 6 270 16.1 32.2 0.00 0.00 0.00 77 1007.6
20260505003224 6 333 6.4 16.1 0.00 0.00 0.00 77 1007.7
20260505002719 6 297 9.7 30.6 0.00 0.00 0.00 77 1007.6
20260505002214 6 225 17.7 22.5 0.00 0.00 0.00 76 1007.5
20260505001709 6 324 12.9 16.1 0.00 0.00 0.00 76 1007.6
20260505001204 6 261 11.3 19.3 0.00 0.00 0.00 76 1007.5
20260505000658 6 45 3.2 14.5 0.00 0.00 0.00 77 1007.5
20260505000153 6 256 14.5 22.5 0.00 0.00 0.00 76 1007.4
20260504235648 6 252 14.5 25.7 0.00 0.00 0.00 76 1007.4
20260504235143 6 243 11.3 24.1 0.00 0.00 0.00 76 1007.5
20260504234638 6 274 16.1 29.0 0.00 0.00 0.00 76 1007.4
20260504234132 6 292 24.1 32.2 0.00 0.00 0.00 77 1007.5
20260504233627 6 261 11.3 25.7 0.00 0.00 0.00 76 1007.5
20260504233122 6 252 17.7 19.3 0.00 0.00 0.00 76 1007.5
20260504232617 6 225 11.3 14.5 0.00 0.00 0.00 76 1007.4
20260504232112 6 270 25.7 37.0 0.00 0.00 0.00 76 1007.5
20260504231606 6 279 24.1 29.0 0.00 0.00 0.00 75 1007.6
20260504231101 6 234 8.0 19.3 0.00 0.00 0.00 75 1007.6
20260504230556 6 270 11.3 25.7 0.00 0.00 0.00 75 1007.5
20260504230051 6 270 16.1 30.6 0.00 0.00 0.00 76 1007.5
20260504225546 6 252 25.7 32.2 0.00 0.00 0.00 75 1007.6
20260504225040 6 261 12.9 32.2 0.00 0.00 0.00 75 1007.6
20260504224535 6 270 17.7 32.2 0.00 0.00 0.00 75 1007.6
20260504224030 6 67 12.9 17.7 0.00 0.00 0.00 75 1007.7
20260504223525 6 261 14.5 25.7 0.00 0.00 0.00 75 1007.7
20260504223020 6 292 20.9 27.4 0.00 0.00 0.00 75 1007.7
20260504222514 6 270 29.0 29.0 0.00 0.00 0.00 74 1007.6
20260504222009 7 252 9.7 22.5 0.00 0.00 0.00 73 1007.7
20260504221504 7 265 17.7 25.7 0.00 0.00 0.00 73 1007.8
20260504220959 7 256 9.7 25.7 0.00 0.00 0.00 73 1007.9
20260504220454 7 274 20.9 24.1 0.00 0.00 0.00 72 1007.8
20260504215948 7 270 17.7 29.0 0.00 0.00 0.00 72 1007.8
20260504215443 7 261 17.7 22.5 0.00 0.00 0.00 72 1007.9
20260504214938 7 225 12.9 17.7 0.00 0.00 0.00 72 1007.9
20260504214433 7 261 14.5 20.9 0.00 0.00 0.00 71 1007.9
20260504213928 7 270 4.8 17.7 0.00 0.00 0.00 71 1008.0
20260504213422 7 45 4.8 25.7 0.00 0.00 0.00 71 1008.0
20260504212917 7 256 8.0 17.7 0.00 0.00 0.00 71 1008.0
20260504212412 7 288 17.7 17.7 0.00 0.00 0.00 71 1008.0
20260504211907 7 270 14.5 22.5 0.00 0.00 0.00 71 1007.9
20260504211402 7 243 12.9 14.5 0.00 0.00 0.00 70 1007.9
20260504210856 7 252 8.0 12.9 0.00 0.00 0.00 70 1008.0
20260504210351 7 225 17.7 22.5 0.00 0.00 0.00 70 1007.9
20260504205846 7 238 17.7 19.3 0.00 0.00 0.00 69 1007.9
20260504205341 7 225 9.7 14.5 0.00 0.00 0.00 70 1007.9
20260504204836 7 279 14.5 14.5 0.00 0.00 0.00 70 1007.9
20260504204330 7 252 8.0 24.1 0.00 0.00 0.00 70 1007.9
20260504203825 7 256 17.7 30.6 0.00 0.00 0.00 71 1007.8
20260504203320 7 270 24.1 29.0 0.00 0.00 0.00 70 1008.0
20260504202815 7 243 6.4 25.7 0.00 0.00 0.00 70 1007.8
20260504202310 7 274 16.1 27.4 0.00 0.00 0.00 70 1007.9
20260504201804 7 256 11.3 17.7 0.00 0.00 0.00 69 1007.9
20260504201259 7 270 16.1 17.7 0.00 0.00 0.00 69 1007.9
20260504200754 7 261 9.7 19.3 0.00 0.00 0.00 69 1007.8
20260504200249 7 265 8.0 17.7 0.00 0.00 0.00 67 1007.9
20260504195744 7 301 3.2 25.7 0.00 0.00 0.00 68 1008.0
20260504195238 7 256 16.1 20.9 0.00 0.00 0.00 67 1007.9
20260504194733 7 247 19.3 19.3 0.00 0.00 0.00 67 1007.9
20260504194228 7 216 12.9 19.3 0.00 0.00 0.00 66 1007.8
20260504193723 7 261 14.5 22.5 0.00 0.00 0.00 67 1007.9
20260504193218 7 225 12.9 24.1 0.00 0.00 0.00 66 1007.8
20260504192712 7 261 16.1 17.7 0.00 0.00 0.00 66 1007.9
20260504192207 7 225 9.7 25.7 0.00 0.00 0.00 66 1007.9
20260504191702 7 243 17.7 24.1 0.00 0.00 0.00 65 1007.7
20260504191157 7 247 11.3 16.1 0.00 0.00 0.00 65 1007.6
20260504190652 7 234 14.5 22.5 0.00 0.00 0.46 65 1007.7
20260504190146 8 265 17.7 17.7 0.00 0.00 0.46 65 1007.6
20260504185641 8 247 17.7 27.4 0.00 0.00 0.46 64 1007.6
20260504185136 8 238 12.9 27.4 0.00 0.00 0.46 64 1007.6
20260504184631 8 270 17.7 27.4 0.00 0.00 0.46 65 1007.6
20260504184126 8 238 20.9 20.9 0.00 0.00 0.46 64 1007.6
20260504183620 8 238 14.5 19.3 0.00 0.00 0.46 64 1007.5
20260504183115 8 256 17.7 27.4 0.00 0.00 0.46 63 1007.4
20260504182610 8 238 16.1 22.5 0.00 0.00 0.46 63 1007.5
20260504182105 8 270 24.1 24.1 0.00 0.00 0.46 62 1007.5
20260504181600 8 261 19.3 19.3 0.00 0.00 0.46 62 1007.5
20260504181054 8 265 9.7 24.1 0.00 0.00 0.46 62 1007.5
20260504180549 9 252 11.3 27.4 0.00 0.00 0.46 62 1007.4
20260504180044 9 301 17.7 25.7 0.00 0.00 0.46 62 1007.4
20260504175539 9 261 16.1 29.0 0.00 0.00 0.46 61 1007.2
20260504175034 9 279 24.1 32.2 0.00 0.00 0.46 62 1007.3
20260504174528 10 270 12.9 25.7 0.00 0.00 0.46 60 1007.4
20260504174023 10 270 6.4 14.5 0.00 0.00 0.46 60 1007.4
20260504173518 10 283 24.1 37.0 0.00 0.00 0.46 58 1007.3
20260504173013 10 270 32.2 32.2 0.00 0.00 0.46 58 1007.3
20260504172508 11 270 9.7 27.4 0.00 0.00 0.46 58 1007.3